GEFSMA_prec_meanprecacc_006.txt.gz
Total_Precipitation_Accumulation
0.00 0.00 0.00 0.00 0.00 0.00 0.00 0.00 0.00 0.00 0.00 0.00 0.00 0.00 0.00 0.00 0.00 0.00 0.00 0.00 0.00 0.00 0.00 0.00 0.00 0.00 0.00 0.00 0.00 0.00 0.00 0.00 0.00 0.00 0.00 0.00 0.00 0.00 0.00 0.00 0.00 0.02 0.04
0.00 0.00 0.00 0.00 0.00 0.00 0.00 0.00 0.00 0.00 0.00 0.00 0.00 0.00 0.00 0.00 0.00 0.00 0.00 0.00 0.00 0.00 0.00 0.00 0.00 0.00 0.00 0.00 0.00 0.00 0.00 0.00 0.00 0.00 0.00 0.00 0.00 0.00 0.00 0.00 0.00 0.00 0.02
0.00 0.00 0.00 0.00 0.00 0.00 0.00 0.00 0.00 0.00 0.00 0.00 0.00 0.00 0.00 0.00 0.00 0.00 0.00 0.00 0.00 0.00 0.00 0.00 0.00 0.00 0.00 0.00 0.00 0.00 0.00 0.00 0.00 0.00 0.00 0.00 0.00 0.00 0.00 0.00 0.00 0.00 0.01
0.00 0.00 0.00 0.00 0.00 0.00 0.00 0.00 0.00 0.00 0.00 0.00 0.00 0.00 0.00 0.00 0.00 0.00 0.00 0.00 0.00 0.00 0.00 0.00 0.00 0.00 0.00 0.00 0.00 0.00 0.00 0.00 0.00 0.00 0.00 0.00 0.00 0.00 0.00 0.00 0.00 0.00 0.01
0.00 0.00 0.00 0.00 0.00 0.00 0.00 0.00 0.00 0.01 0.01 0.00 0.00 0.00 0.00 0.00 0.00 0.00 0.00 0.00 0.00 0.00 0.00 0.00 0.00 0.00 0.00 0.00 0.00 0.00 0.00 0.00 0.00 0.00 0.00 0.00 0.00 0.00 0.00 0.00 0.00 0.00 0.01
0.00 0.00 0.00 0.01 0.01 0.02 0.02 0.02 0.03 0.02 0.01 0.00 0.00 0.00 0.00 0.00 0.00 0.00 0.00 0.00 0.00 0.00 0.00 0.00 0.00 0.00 0.00 0.00 0.00 0.00 0.00 0.00 0.00 0.00 0.00 0.00 0.00 0.00 0.00 0.00 0.00 0.00 0.01
0.01 0.02 0.01 0.03 0.05 0.05 0.04 0.02 0.02 0.01 0.01 0.00 0.01 0.00 0.00 0.00 0.00 0.00 0.00 0.00 0.00 0.00 0.00 0.00 0.00 0.00 0.00 0.01 0.03 0.03 0.02 0.02 0.01 0.01 0.00 0.00 0.00 0.00 0.00 0.00 0.00 0.00 0.01
0.01 0.02 0.03 0.01 0.03 0.02 0.02 0.02 0.02 0.01 0.01 0.00 0.01 0.01 0.00 0.00 0.00 0.00 0.00 0.00 0.00 0.00 0.00 0.00 0.00 0.00 0.00 0.00 0.01 0.04 0.05 0.02 0.01 0.01 0.01 0.00 0.00 0.00 0.00 0.00 0.00 0.00 0.01
0.02 0.01 0.01 0.00 0.01 0.00 0.01 0.02 0.02 0.03 0.02 0.01 0.00 0.01 0.01 0.00 0.00 0.00 0.00 0.00 0.00 0.00 0.00 0.00 0.00 0.00 0.00 0.00 0.00 0.00 0.01 0.02 0.01 0.01 0.01 0.01 0.00 0.00 0.00 0.00 0.00 0.00 0.01
0.01 0.00 0.00 0.01 0.00 0.00 0.01 0.01 0.01 0.02 0.02 0.01 0.00 0.00 0.00 0.00 0.01 0.00 0.00 0.00 0.00 0.00 0.00 0.00 0.00 0.00 0.00 0.00 0.00 0.00 0.00 0.00 0.01 0.00 0.00 0.01 0.01 0.00 0.00 0.00 0.00 0.00 0.01
0.00 0.00 0.00 0.01 0.01 0.01 0.01 0.01 0.01 0.01 0.01 0.01 0.00 0.00 0.00 0.00 0.00 0.01 0.00 0.00 0.00 0.00 0.00 0.00 0.00 0.00 0.00 0.00 0.00 0.00 0.00 0.01 0.01 0.00 0.00 0.00 0.00 0.00 0.00 0.00 0.00 0.00 0.01
0.00 0.00 0.00 0.00 0.01 0.01 0.01 0.01 0.01 0.00 0.01 0.01 0.01 0.01 0.01 0.01 0.01 0.01 0.01 0.00 0.00 0.00 0.00 0.00 0.00 0.00 0.00 0.00 0.01 0.01 0.02 0.03 0.01 0.01 0.00 0.00 0.00 0.00 0.00 0.00 0.00 0.00 0.01
0.00 0.00 0.00 0.00 0.00 0.01 0.00 0.00 0.00 0.01 0.01 0.01 0.02 0.02 0.02 0.02 0.01 0.02 0.02 0.02 0.01 0.00 0.00 0.00 0.00 0.00 0.00 0.00 0.02 0.05 0.10 0.05 0.02 0.01 0.00 0.00 0.00 0.00 0.00 0.00 0.00 0.00 0.01
0.00 0.00 0.00 0.00 0.00 0.00 0.00 0.01 0.01 0.01 0.01 0.01 0.01 0.02 0.03 0.03 0.04 0.05 0.06 0.06 0.05 0.03 0.01 0.00 0.00 0.00 0.01 0.04 0.10 0.12 0.17 0.07 0.04 0.02 0.01 0.00 0.00 0.00 0.00 0.00 0.00 0.00 0.01
0.00 0.00 0.00 0.01 0.01 0.02 0.02 0.02 0.02 0.02 0.02 0.02 0.02 0.03 0.03 0.04 0.04 0.05 0.05 0.05 0.06 0.05 0.03 0.01 0.02 0.03 0.06 0.13 0.23 0.25 0.21 0.10 0.03 0.01 0.00 0.00 0.00 0.00 0.00 0.00 0.00 0.00 0.01
0.01 0.01 0.02 0.02 0.02 0.02 0.02 0.02 0.02 0.03 0.03 0.03 0.04 0.04 0.04 0.04 0.04 0.04 0.05 0.06 0.09 0.11 0.08 0.03 0.02 0.04 0.08 0.14 0.26 0.27 0.24 0.15 0.07 0.03 0.01 0.00 0.00 0.00 0.00 0.00 0.00 0.01 0.03
0.02 0.02 0.03 0.03 0.02 0.02 0.02 0.03 0.04 0.04 0.03 0.03 0.03 0.03 0.02 0.02 0.03 0.04 0.05 0.06 0.07 0.09 0.08 0.04 0.03 0.04 0.08 0.14 0.21 0.20 0.18 0.14 0.11 0.09 0.04 0.02 0.02 0.01 0.01 0.00 0.01 0.04 0.08
0.02 0.03 0.03 0.03 0.02 0.02 0.03 0.04 0.04 0.03 0.03 0.02 0.02 0.03 0.03 0.03 0.03 0.03 0.04 0.05 0.06 0.08 0.09 0.06 0.03 0.02 0.04 0.10 0.13 0.13 0.13 0.13 0.14 0.15 0.09 0.04 0.02 0.02 0.06 0.04 0.02 0.07 0.14
0.03 0.03 0.03 0.02 0.02 0.03 0.03 0.03 0.02 0.01 0.02 0.02 0.03 0.04 0.05 0.05 0.03 0.03 0.04 0.05 0.06 0.07 0.08 0.07 0.04 0.03 0.07 0.14 0.18 0.17 0.13 0.15 0.16 0.14 0.11 0.06 0.03 0.05 0.29 0.36 0.15 0.12 0.18
0.03 0.02 0.02 0.01 0.01 0.02 0.02 0.01 0.01 0.01 0.02 0.02 0.03 0.05 0.06 0.05 0.04 0.05 0.06 0.07 0.08 0.08 0.07 0.07 0.05 0.04 0.08 0.13 0.14 0.16 0.15 0.13 0.14 0.09 0.09 0.08 0.07 0.16 0.53 1.04 0.53 0.26 0.23
0.01 0.01 0.01 0.01 0.01 0.01 0.00 0.00 0.00 0.00 0.01 0.02 0.03 0.05 0.05 0.04 0.06 0.06 0.05 0.05 0.07 0.08 0.08 0.07 0.05 0.05 0.06 0.10 0.11 0.11 0.10 0.14 0.14 0.10 0.14 0.13 0.23 0.45 0.73 1.26 1.01 0.60 0.47
0.00 0.01 0.01 0.01 0.01 0.00 0.00 0.00 0.00 0.00 0.01 0.02 0.03 0.04 0.02 0.02 0.02 0.02 0.03 0.05 0.06 0.06 0.07 0.07 0.06 0.06 0.06 0.07 0.08 0.09 0.08 0.13 0.11 0.08 0.09 0.14 0.34 0.62 0.85 1.08 1.07 0.83 0.71
0.01 0.01 0.01 0.00 0.01 0.01 0.00 0.00 0.00 0.00 0.01 0.02 0.04 0.02 0.01 0.01 0.01 0.01 0.02 0.05 0.08 0.09 0.08 0.07 0.06 0.05 0.05 0.05 0.06 0.10 0.09 0.10 0.11 0.07 0.05 0.09 0.26 0.53 0.69 0.83 0.89 0.82 0.75
0.01 0.01 0.01 0.00 0.01 0.01 0.00 0.00 0.00 0.00 0.01 0.02 0.02 0.01 0.01 0.01 0.01 0.02 0.05 0.10 0.10 0.09 0.09 0.10 0.08 0.05 0.04 0.04 0.04 0.05 0.06 0.10 0.09 0.05 0.03 0.08 0.22 0.38 0.47 0.53 0.59 0.59 0.57
0.01 0.01 0.01 0.01 0.01 0.01 0.00 0.00 0.00 0.00 0.00 0.01 0.01 0.01 0.01 0.01 0.01 0.04 0.08 0.12 0.13 0.15 0.21 0.26 0.19 0.11 0.12 0.10 0.05 0.04 0.05 0.09 0.09 0.05 0.03 0.06 0.14 0.23 0.27 0.27 0.28 0.27 0.27
0.01 0.00 0.00 0.01 0.01 0.00 0.00 0.00 0.00 0.00 0.00 0.00 0.01 0.01 0.01 0.02 0.03 0.05 0.09 0.13 0.15 0.18 0.25 0.31 0.18 0.12 0.11 0.12 0.11 0.05 0.07 0.11 0.09 0.03 0.02 0.04 0.06 0.09 0.13 0.11 0.08 0.08 0.08

GEFSMA_prec_meanprecacc_012.txt.gz
Total_Precipitation_Accumulation
0.01 0.00 0.00 0.00 0.00 0.00 0.00 0.00 0.00 0.00 0.00 0.00 0.00 0.00 0.00 0.00 0.00 0.00 0.00 0.00 0.00 0.00 0.00 0.00 0.00 0.00 0.00 0.00 0.00 0.00 0.00 0.00 0.00 0.00 0.00 0.00 0.00 0.00 0.00 0.00 0.00 0.02 0.04
0.00 0.00 0.00 0.00 0.00 0.00 0.00 0.00 0.00 0.00 0.00 0.00 0.00 0.00 0.00 0.00 0.00 0.00 0.00 0.00 0.00 0.00 0.00 0.00 0.00 0.00 0.00 0.00 0.00 0.00 0.00 0.00 0.00 0.00 0.00 0.00 0.00 0.00 0.00 0.00 0.00 0.00 0.02
0.00 0.00 0.00 0.00 0.00 0.00 0.00 0.00 0.00 0.00 0.00 0.00 0.00 0.00 0.01 0.01 0.01 0.01 0.01 0.00 0.00 0.00 0.00 0.01 0.01 0.01 0.01 0.00 0.00 0.00 0.00 0.00 0.00 0.00 0.00 0.00 0.00 0.00 0.00 0.00 0.00 0.00 0.01
0.00 0.00 0.00 0.00 0.00 0.00 0.01 0.01 0.01 0.01 0.01 0.01 0.02 0.02 0.02 0.02 0.01 0.01 0.01 0.01 0.00 0.00 0.00 0.00 0.00 0.01 0.01 0.01 0.01 0.01 0.02 0.01 0.01 0.01 0.01 0.00 0.00 0.00 0.00 0.00 0.00 0.00 0.01
0.00 0.00 0.00 0.00 0.00 0.01 0.03 0.05 0.06 0.07 0.06 0.06 0.06 0.04 0.03 0.02 0.02 0.01 0.01 0.01 0.01 0.01 0.00 0.00 0.00 0.01 0.01 0.02 0.02 0.02 0.03 0.04 0.04 0.03 0.02 0.01 0.01 0.00 0.00 0.00 0.00 0.00 0.01
0.02 0.02 0.02 0.03 0.03 0.05 0.08 0.11 0.13 0.11 0.08 0.06 0.04 0.03 0.03 0.02 0.02 0.01 0.01 0.01 0.01 0.00 0.00 0.00 0.00 0.01 0.03 0.04 0.04 0.04 0.04 0.07 0.10 0.09 0.05 0.03 0.02 0.01 0.01 0.00 0.00 0.00 0.01
0.11 0.10 0.07 0.09 0.09 0.09 0.08 0.06 0.07 0.07 0.06 0.04 0.03 0.02 0.01 0.01 0.01 0.00 0.00 0.00 0.00 0.00 0.00 0.00 0.00 0.00 0.01 0.04 0.07 0.07 0.07 0.10 0.13 0.11 0.07 0.06 0.06 0.04 0.02 0.01 0.00 0.00 0.01
0.13 0.10 0.09 0.05 0.06 0.06 0.05 0.05 0.04 0.03 0.02 0.01 0.02 0.01 0.00 0.00 0.00 0.00 0.00 0.00 0.00 0.00 0.00 0.00 0.00 0.00 0.00 0.00 0.02 0.07 0.10 0.06 0.05 0.07 0.09 0.10 0.07 0.05 0.03 0.02 0.01 0.00 0.01
0.12 0.08 0.05 0.04 0.03 0.02 0.03 0.03 0.03 0.04 0.02 0.01 0.01 0.02 0.01 0.00 0.00 0.00 0.00 0.00 0.00 0.00 0.00 0.00 0.00 0.00 0.00 0.00 0.00 0.01 0.05 0.07 0.05 0.04 0.07 0.10 0.08 0.05 0.03 0.02 0.01 0.01 0.01
0.05 0.03 0.02 0.01 0.01 0.01 0.01 0.01 0.02 0.02 0.02 0.01 0.00 0.00 0.01 0.01 0.01 0.00 0.00 0.00 0.00 0.00 0.00 0.00 0.00 0.00 0.00 0.00 0.00 0.01 0.02 0.04 0.06 0.05 0.05 0.07 0.08 0.06 0.03 0.02 0.01 0.01 0.01
0.00 0.00 0.00 0.01 0.01 0.01 0.01 0.01 0.01 0.01 0.01 0.01 0.00 0.00 0.00 0.00 0.01 0.01 0.01 0.00 0.00 0.00 0.00 0.00 0.00 0.00 0.00 0.01 0.01 0.02 0.03 0.05 0.06 0.07 0.06 0.05 0.05 0.04 0.03 0.02 0.01 0.01 0.01
0.00 0.00 0.00 0.00 0.01 0.01 0.01 0.01 0.01 0.01 0.01 0.01 0.01 0.01 0.02 0.02 0.02 0.02 0.02 0.01 0.01 0.00 0.00 0.00 0.00 0.00 0.01 0.01 0.02 0.04 0.08 0.10 0.10 0.10 0.09 0.07 0.05 0.04 0.03 0.02 0.01 0.01 0.02
0.00 0.00 0.00 0.00 0.00 0.01 0.00 0.00 0.00 0.01 0.01 0.02 0.02 0.02 0.02 0.02 0.03 0.04 0.05 0.04 0.03 0.01 0.00 0.00 0.00 0.00 0.01 0.01 0.03 0.07 0.14 0.11 0.10 0.10 0.08 0.07 0.05 0.02 0.01 0.01 0.01 0.01 0.01
0.00 0.00 0.00 0.00 0.00 0.00 0.01 0.01 0.01 0.01 0.01 0.02 0.02 0.03 0.03 0.03 0.04 0.06 0.09 0.10 0.09 0.05 0.02 0.00 0.00 0.00 0.01 0.04 0.10 0.13 0.19 0.10 0.07 0.05 0.03 0.02 0.02 0.01 0.00 0.00 0.00 0.00 0.01
0.00 0.00 0.00 0.01 0.02 0.02 0.02 0.02 0.02 0.02 0.03 0.03 0.03 0.03 0.04 0.05 0.06 0.07 0.08 0.10 0.12 0.10 0.06 0.02 0.02 0.03 0.06 0.13 0.23 0.26 0.24 0.15 0.09 0.04 0.02 0.01 0.00 0.00 0.00 0.00 0.00 0.00 0.01
0.01 0.01 0.02 0.03 0.03 0.03 0.03 0.03 0.03 0.04 0.04 0.04 0.05 0.05 0.05 0.05 0.05 0.06 0.07 0.09 0.13 0.17 0.13 0.05 0.02 0.04 0.08 0.14 0.27 0.30 0.32 0.28 0.19 0.10 0.04 0.02 0.01 0.00 0.00 0.00 0.00 0.01 0.03
0.02 0.03 0.03 0.03 0.03 0.02 0.02 0.03 0.05 0.05 0.04 0.03 0.03 0.03 0.03 0.03 0.04 0.05 0.07 0.08 0.09 0.13 0.13 0.07 0.03 0.04 0.08 0.15 0.22 0.24 0.25 0.23 0.20 0.16 0.07 0.03 0.02 0.01 0.01 0.00 0.01 0.05 0.09
0.03 0.03 0.03 0.03 0.02 0.02 0.03 0.04 0.04 0.03 0.03 0.02 0.02 0.03 0.03 0.04 0.04 0.04 0.06 0.07 0.08 0.11 0.14 0.10 0.04 0.02 0.04 0.10 0.15 0.16 0.17 0.17 0.17 0.20 0.12 0.06 0.03 0.02 0.06 0.04 0.02 0.07 0.14
0.03 0.03 0.03 0.02 0.02 0.03 0.03 0.03 0.02 0.01 0.02 0.02 0.03 0.04 0.05 0.05 0.04 0.04 0.06 0.07 0.08 0.10 0.12 0.11 0.06 0.03 0.07 0.15 0.21 0.21 0.18 0.19 0.19 0.17 0.13 0.08 0.04 0.05 0.30 0.37 0.15 0.12 0.18
0.03 0.02 0.02 0.01 0.01 0.02 0.02 0.01 0.01 0.01 0.02 0.02 0.03 0.05 0.07 0.07 0.06 0.07 0.08 0.08 0.10 0.10 0.09 0.09 0.06 0.04 0.08 0.14 0.18 0.24 0.23 0.18 0.17 0.11 0.12 0.10 0.09 0.18 0.56 1.12 0.60 0.28 0.25
0.01 0.01 0.01 0.01 0.01 0.01 0.00 0.00 0.00 0.00 0.01 0.02 0.03 0.06 0.07 0.07 0.09 0.08 0.06 0.06 0.08 0.09 0.10 0.10 0.07 0.06 0.08 0.14 0.17 0.17 0.16 0.19 0.17 0.12 0.16 0.16 0.29 0.60 1.10 1.76 1.34 0.72 0.52
0.01 0.01 0.01 0.01 0.01 0.00 0.00 0.00 0.00 0.00 0.01 0.02 0.04 0.05 0.03 0.02 0.03 0.02 0.03 0.05 0.07 0.09 0.12 0.12 0.10 0.09 0.08 0.11 0.13 0.14 0.13 0.17 0.16 0.10 0.11 0.19 0.47 1.12 1.72 2.09 1.76 1.11 0.86
0.01 0.01 0.01 0.01 0.01 0.01 0.00 0.00 0.00 0.00 0.01 0.02 0.04 0.03 0.01 0.01 0.01 0.01 0.02 0.05 0.09 0.15 0.17 0.15 0.12 0.08 0.07 0.08 0.10 0.15 0.14 0.15 0.17 0.10 0.07 0.16 0.50 1.21 1.57 1.86 1.71 1.21 1.01
0.01 0.01 0.01 0.01 0.01 0.01 0.00 0.00 0.00 0.00 0.01 0.02 0.02 0.02 0.02 0.01 0.01 0.02 0.05 0.11 0.13 0.14 0.16 0.16 0.12 0.08 0.07 0.07 0.08 0.10 0.09 0.13 0.13 0.07 0.06 0.18 0.52 1.01 1.16 1.27 1.36 1.12 1.00
0.01 0.01 0.01 0.01 0.01 0.01 0.00 0.00 0.00 0.00 0.00 0.01 0.01 0.01 0.02 0.01 0.02 0.04 0.08 0.13 0.16 0.22 0.30 0.34 0.27 0.18 0.18 0.16 0.09 0.06 0.07 0.11 0.12 0.07 0.06 0.16 0.40 0.70 0.80 0.84 0.93 0.92 0.89
0.01 0.00 0.01 0.01 0.01 0.00 0.00 0.00 0.00 0.00 0.00 0.00 0.01 0.01 0.02 0.03 0.04 0.06 0.10 0.16 0.22 0.28 0.39 0.44 0.29 0.22 0.20 0.19 0.16 0.08 0.10 0.16 0.13 0.05 0.05 0.10 0.23 0.38 0.53 0.62 0.60 0.59 0.64

GEFSMA_prec_meanprecacc_018.txt.gz
Total_Precipitation_Accumulation
0.01 0.00 0.00 0.00 0.00 0.00 0.00 0.00 0.00 0.00 0.00 0.00 0.00 0.00 0.00 0.00 0.00 0.00 0.00 0.00 0.00 0.00 0.00 0.00 0.00 0.00 0.01 0.01 0.00 0.00 0.00 0.00 0.00 0.00 0.00 0.00 0.00 0.00 0.00 0.00 0.00 0.02 0.04
0.00 0.00 0.00 0.00 0.00 0.00 0.00 0.00 0.00 0.00 0.00 0.00 0.00 0.00 0.00 0.00 0.00 0.00 0.00 0.00 0.00 0.00 0.00 0.00 0.01 0.01 0.01 0.01 0.01 0.01 0.01 0.01 0.00 0.01 0.01 0.00 0.00 0.00 0.00 0.00 0.00 0.00 0.02
0.00 0.00 0.00 0.00 0.00 0.00 0.00 0.00 0.00 0.00 0.00 0.00 0.00 0.00 0.01 0.01 0.01 0.02 0.02 0.02 0.02 0.01 0.02 0.02 0.02 0.02 0.01 0.01 0.02 0.02 0.02 0.01 0.01 0.01 0.01 0.01 0.01 0.00 0.00 0.00 0.00 0.00 0.01
0.00 0.00 0.00 0.00 0.00 0.00 0.01 0.01 0.02 0.02 0.03 0.02 0.03 0.03 0.03 0.03 0.04 0.04 0.03 0.03 0.02 0.02 0.02 0.02 0.01 0.01 0.01 0.01 0.01 0.02 0.03 0.03 0.03 0.03 0.03 0.02 0.02 0.01 0.01 0.00 0.00 0.00 0.01
0.00 0.00 0.00 0.00 0.00 0.01 0.03 0.05 0.07 0.08 0.07 0.07 0.07 0.05 0.04 0.04 0.04 0.04 0.04 0.03 0.03 0.02 0.02 0.01 0.01 0.01 0.01 0.02 0.02 0.02 0.03 0.05 0.06 0.06 0.05 0.04 0.04 0.03 0.02 0.01 0.01 0.01 0.01
0.02 0.02 0.02 0.03 0.04 0.06 0.08 0.11 0.13 0.11 0.09 0.07 0.05 0.04 0.04 0.03 0.04 0.03 0.03 0.03 0.02 0.02 0.01 0.01 0.01 0.01 0.03 0.04 0.05 0.04 0.05 0.09 0.13 0.12 0.08 0.07 0.08 0.07 0.05 0.04 0.03 0.02 0.02
0.12 0.11 0.08 0.10 0.09 0.09 0.08 0.07 0.07 0.07 0.06 0.04 0.04 0.02 0.01 0.01 0.01 0.01 0.01 0.01 0.01 0.01 0.01 0.01 0.01 0.01 0.01 0.04 0.07 0.07 0.07 0.10 0.16 0.15 0.12 0.13 0.14 0.13 0.10 0.08 0.05 0.04 0.04
0.13 0.10 0.09 0.06 0.06 0.06 0.06 0.06 0.04 0.03 0.02 0.01 0.02 0.02 0.00 0.00 0.00 0.00 0.00 0.00 0.00 0.00 0.00 0.00 0.00 0.00 0.00 0.00 0.02 0.07 0.10 0.06 0.06 0.10 0.16 0.19 0.18 0.16 0.15 0.13 0.10 0.07 0.06
0.12 0.08 0.05 0.04 0.03 0.02 0.03 0.03 0.03 0.04 0.03 0.01 0.01 0.02 0.02 0.01 0.00 0.00 0.00 0.00 0.00 0.00 0.00 0.00 0.00 0.00 0.00 0.00 0.00 0.01 0.05 0.08 0.05 0.05 0.11 0.18 0.18 0.16 0.16 0.15 0.13 0.12 0.10
0.05 0.03 0.02 0.01 0.01 0.01 0.01 0.01 0.02 0.02 0.02 0.01 0.00 0.00 0.01 0.01 0.02 0.01 0.00 0.00 0.00 0.00 0.00 0.00 0.00 0.00 0.00 0.00 0.00 0.01 0.02 0.05 0.06 0.05 0.07 0.11 0.14 0.13 0.11 0.10 0.11 0.11 0.11
0.00 0.00 0.00 0.01 0.01 0.01 0.01 0.01 0.01 0.01 0.01 0.01 0.01 0.00 0.00 0.00 0.01 0.02 0.01 0.00 0.00 0.00 0.00 0.00 0.00 0.00 0.00 0.01 0.01 0.03 0.04 0.06 0.06 0.07 0.07 0.06 0.08 0.09 0.10 0.10 0.10 0.10 0.10
0.00 0.00 0.00 0.00 0.01 0.01 0.01 0.01 0.01 0.01 0.01 0.01 0.01 0.01 0.02 0.02 0.02 0.02 0.03 0.01 0.01 0.00 0.00 0.00 0.00 0.00 0.01 0.01 0.02 0.05 0.09 0.11 0.11 0.11 0.10 0.08 0.07 0.06 0.07 0.09 0.10 0.10 0.10
0.00 0.00 0.00 0.00 0.00 0.01 0.00 0.00 0.00 0.01 0.01 0.02 0.02 0.02 0.02 0.02 0.03 0.04 0.05 0.04 0.03 0.01 0.00 0.00 0.00 0.00 0.01 0.01 0.03 0.07 0.14 0.12 0.11 0.10 0.09 0.07 0.06 0.04 0.03 0.04 0.05 0.07 0.08
0.00 0.00 0.00 0.00 0.00 0.00 0.01 0.01 0.01 0.01 0.01 0.02 0.02 0.03 0.03 0.03 0.05 0.06 0.10 0.12 0.10 0.06 0.02 0.00 0.00 0.00 0.01 0.04 0.10 0.13 0.19 0.10 0.08 0.05 0.04 0.03 0.02 0.02 0.02 0.02 0.02 0.03 0.05
0.00 0.00 0.00 0.01 0.02 0.02 0.02 0.02 0.02 0.02 0.03 0.03 0.03 0.03 0.04 0.05 0.06 0.07 0.08 0.11 0.14 0.13 0.07 0.02 0.02 0.03 0.06 0.13 0.23 0.26 0.24 0.15 0.09 0.05 0.03 0.02 0.01 0.01 0.01 0.01 0.01 0.01 0.02
0.01 0.01 0.02 0.03 0.03 0.03 0.03 0.03 0.03 0.04 0.04 0.04 0.05 0.05 0.05 0.05 0.05 0.06 0.07 0.09 0.14 0.19 0.16 0.06 0.02 0.04 0.08 0.14 0.27 0.30 0.32 0.29 0.20 0.12 0.07 0.04 0.02 0.02 0.02 0.01 0.01 0.02 0.04
0.02 0.03 0.03 0.03 0.03 0.02 0.02 0.03 0.05 0.05 0.04 0.03 0.03 0.03 0.03 0.03 0.04 0.05 0.07 0.08 0.10 0.15 0.17 0.08 0.04 0.04 0.08 0.15 0.22 0.24 0.25 0.24 0.21 0.19 0.11 0.07 0.06 0.04 0.02 0.01 0.02 0.05 0.09
0.03 0.03 0.03 0.03 0.02 0.02 0.03 0.04 0.04 0.03 0.03 0.02 0.02 0.03 0.03 0.04 0.04 0.04 0.06 0.07 0.09 0.13 0.18 0.14 0.06 0.03 0.05 0.10 0.15 0.16 0.17 0.18 0.19 0.23 0.16 0.09 0.06 0.05 0.08 0.05 0.03 0.07 0.14
0.03 0.03 0.03 0.02 0.02 0.03 0.03 0.03 0.02 0.01 0.02 0.02 0.03 0.04 0.05 0.05 0.04 0.05 0.06 0.08 0.10 0.12 0.15 0.15 0.07 0.04 0.08 0.15 0.21 0.21 0.18 0.20 0.20 0.20 0.16 0.11 0.06 0.07 0.30 0.37 0.15 0.13 0.18
0.03 0.02 0.02 0.01 0.01 0.02 0.02 0.01 0.01 0.01 0.02 0.02 0.03 0.05 0.07 0.07 0.07 0.08 0.09 0.10 0.12 0.12 0.10 0.10 0.07 0.05 0.09 0.15 0.18 0.25 0.25 0.20 0.19 0.13 0.15 0.12 0.11 0.18 0.57 1.12 0.60 0.28 0.25
0.01 0.01 0.01 0.01 0.01 0.01 0.00 0.00 0.00 0.00 0.01 0.02 0.03 0.06 0.07 0.07 0.10 0.10 0.09 0.09 0.10 0.11 0.11 0.11 0.09 0.07 0.09 0.14 0.18 0.19 0.20 0.23 0.20 0.14 0.17 0.16 0.29 0.61 1.12 1.80 1.39 0.76 0.54
0.01 0.01 0.01 0.01 0.01 0.00 0.00 0.00 0.00 0.00 0.01 0.02 0.04 0.05 0.03 0.02 0.03 0.03 0.05 0.07 0.10 0.12 0.14 0.15 0.13 0.11 0.09 0.12 0.16 0.19 0.19 0.22 0.19 0.12 0.12 0.20 0.48 1.19 1.87 2.27 1.92 1.20 0.91
0.01 0.01 0.01 0.01 0.01 0.01 0.00 0.00 0.00 0.00 0.01 0.02 0.04 0.03 0.01 0.01 0.01 0.01 0.03 0.06 0.10 0.16 0.20 0.22 0.20 0.13 0.11 0.12 0.16 0.21 0.18 0.18 0.20 0.13 0.09 0.17 0.56 1.39 1.82 2.13 1.98 1.35 1.08
0.01 0.01 0.01 0.01 0.01 0.01 0.00 0.00 0.00 0.00 0.01 0.02 0.02 0.02 0.02 0.01 0.02 0.03 0.05 0.11 0.13 0.15 0.20 0.23 0.21 0.16 0.14 0.14 0.14 0.15 0.13 0.16 0.15 0.09 0.07 0.21 0.63 1.27 1.48 1.55 1.70 1.36 1.12
0.01 0.01 0.01 0.01 0.01 0.01 0.00 0.00 0.00 0.00 0.00 0.01 0.01 0.01 0.02 0.01 0.03 0.06 0.09 0.14 0.17 0.24 0.37 0.48 0.41 0.30 0.27 0.23 0.14 0.09 0.10 0.14 0.16 0.10 0.07 0.20 0.52 0.94 1.12 1.16 1.23 1.23 1.14
0.01 0.00 0.01 0.01 0.01 0.00 0.00 0.00 0.00 0.00 0.00 0.00 0.01 0.01 0.02 0.03 0.05 0.07 0.11 0.17 0.25 0.35 0.52 0.64 0.47 0.33 0.27 0.24 0.21 0.12 0.14 0.21 0.19 0.09 0.07 0.15 0.33 0.55 0.79 0.97 0.88 0.79 0.85

GEFSMA_prec_meanprecacc_024.txt.gz
Total_Precipitation_Accumulation
0.01 0.01 0.00 0.00 0.00 0.00 0.00 0.00 0.00 0.00 0.00 0.00 0.00 0.00 0.00 0.00 0.00 0.00 0.00 0.00 0.00 0.00 0.00 0.00 0.00 0.01 0.01 0.01 0.01 0.01 0.01 0.01 0.01 0.01 0.01 0.00 0.00 0.00 0.00 0.00 0.00 0.02 0.04
0.01 0.01 0.01 0.01 0.01 0.00 0.00 0.00 0.00 0.00 0.00 0.00 0.00 0.00 0.00 0.00 0.00 0.00 0.00 0.00 0.00 0.00 0.00 0.00 0.01 0.02 0.01 0.01 0.01 0.02 0.02 0.01 0.01 0.02 0.02 0.01 0.00 0.00 0.00 0.00 0.00 0.00 0.02
0.00 0.00 0.00 0.00 0.00 0.00 0.00 0.00 0.00 0.00 0.00 0.00 0.00 0.00 0.01 0.01 0.01 0.02 0.02 0.02 0.02 0.02 0.02 0.02 0.02 0.02 0.02 0.01 0.02 0.02 0.02 0.02 0.03 0.03 0.03 0.02 0.02 0.01 0.01 0.00 0.00 0.00 0.01
0.00 0.00 0.00 0.00 0.00 0.00 0.01 0.01 0.02 0.02 0.03 0.02 0.03 0.03 0.03 0.03 0.04 0.04 0.03 0.03 0.03 0.02 0.02 0.02 0.02 0.02 0.02 0.02 0.02 0.02 0.03 0.04 0.05 0.05 0.05 0.04 0.04 0.03 0.02 0.01 0.01 0.01 0.01
0.00 0.00 0.00 0.00 0.00 0.01 0.03 0.05 0.07 0.08 0.08 0.07 0.07 0.05 0.05 0.04 0.05 0.05 0.04 0.04 0.04 0.03 0.03 0.02 0.01 0.02 0.02 0.02 0.02 0.02 0.04 0.06 0.07 0.07 0.07 0.07 0.07 0.06 0.04 0.03 0.02 0.02 0.01
0.02 0.02 0.02 0.03 0.04 0.06 0.08 0.11 0.13 0.11 0.09 0.07 0.05 0.04 0.04 0.04 0.04 0.04 0.03 0.03 0.03 0.02 0.02 0.01 0.01 0.02 0.03 0.05 0.05 0.04 0.05 0.09 0.14 0.13 0.09 0.09 0.12 0.11 0.09 0.07 0.06 0.04 0.03
0.12 0.11 0.08 0.10 0.09 0.09 0.08 0.07 0.07 0.07 0.07 0.05 0.05 0.03 0.02 0.01 0.01 0.01 0.01 0.01 0.01 0.01 0.01 0.01 0.01 0.01 0.02 0.04 0.07 0.07 0.07 0.10 0.16 0.16 0.13 0.15 0.18 0.17 0.15 0.13 0.10 0.08 0.07
0.13 0.10 0.09 0.06 0.06 0.06 0.06 0.06 0.05 0.03 0.03 0.02 0.03 0.02 0.01 0.00 0.00 0.00 0.00 0.00 0.00 0.00 0.00 0.01 0.00 0.00 0.00 0.00 0.02 0.07 0.10 0.06 0.06 0.10 0.16 0.21 0.21 0.20 0.21 0.20 0.18 0.15 0.12
0.12 0.08 0.05 0.04 0.03 0.02 0.03 0.03 0.03 0.04 0.03 0.01 0.01 0.02 0.02 0.01 0.00 0.00 0.00 0.00 0.00 0.00 0.00 0.00 0.00 0.00 0.00 0.00 0.00 0.01 0.05 0.08 0.05 0.05 0.12 0.20 0.20 0.19 0.20 0.21 0.22 0.22 0.20
0.05 0.03 0.02 0.01 0.01 0.01 0.01 0.01 0.02 0.02 0.02 0.01 0.00 0.01 0.01 0.01 0.02 0.01 0.00 0.00 0.00 0.00 0.00 0.00 0.00 0.00 0.00 0.00 0.00 0.01 0.02 0.05 0.06 0.05 0.07 0.12 0.16 0.15 0.15 0.15 0.18 0.21 0.22
0.00 0.00 0.00 0.01 0.01 0.01 0.01 0.01 0.01 0.01 0.01 0.01 0.01 0.01 0.01 0.01 0.02 0.03 0.02 0.01 0.00 0.00 0.00 0.00 0.00 0.00 0.00 0.01 0.02 0.03 0.04 0.06 0.07 0.08 0.08 0.07 0.09 0.11 0.13 0.14 0.16 0.19 0.21
0.00 0.00 0.00 0.00 0.01 0.01 0.01 0.01 0.01 0.01 0.01 0.01 0.01 0.01 0.02 0.02 0.02 0.03 0.03 0.02 0.01 0.00 0.00 0.00 0.00 0.00 0.01 0.01 0.03 0.05 0.09 0.12 0.12 0.12 0.10 0.09 0.08 0.08 0.09 0.12 0.15 0.18 0.21
0.00 0.00 0.00 0.00 0.00 0.01 0.01 0.01 0.01 0.01 0.01 0.02 0.02 0.02 0.02 0.02 0.03 0.04 0.06 0.05 0.03 0.01 0.00 0.00 0.00 0.00 0.01 0.01 0.04 0.08 0.15 0.13 0.11 0.11 0.09 0.08 0.07 0.06 0.05 0.06 0.09 0.14 0.19
0.00 0.00 0.00 0.00 0.00 0.01 0.01 0.01 0.01 0.01 0.01 0.02 0.02 0.03 0.04 0.03 0.05 0.06 0.10 0.12 0.11 0.06 0.02 0.00 0.00 0.00 0.01 0.04 0.11 0.14 0.20 0.11 0.08 0.06 0.04 0.03 0.03 0.03 0.03 0.04 0.05 0.07 0.11
0.00 0.00 0.00 0.01 0.02 0.02 0.02 0.03 0.02 0.02 0.03 0.03 0.04 0.04 0.04 0.05 0.06 0.07 0.09 0.11 0.15 0.14 0.08 0.02 0.02 0.03 0.06 0.13 0.24 0.27 0.27 0.17 0.10 0.06 0.04 0.02 0.02 0.02 0.02 0.02 0.02 0.03 0.05
0.01 0.01 0.02 0.03 0.03 0.03 0.03 0.03 0.03 0.04 0.05 0.05 0.06 0.06 0.06 0.05 0.06 0.06 0.07 0.09 0.15 0.21 0.18 0.06 0.03 0.04 0.09 0.14 0.28 0.32 0.35 0.30 0.21 0.12 0.07 0.04 0.03 0.03 0.03 0.03 0.03 0.03 0.05
0.02 0.03 0.03 0.03 0.03 0.02 0.02 0.04 0.05 0.05 0.05 0.04 0.04 0.04 0.04 0.04 0.05 0.05 0.07 0.09 0.11 0.17 0.19 0.10 0.05 0.05 0.10 0.17 0.24 0.27 0.27 0.25 0.22 0.20 0.12 0.08 0.07 0.05 0.04 0.03 0.04 0.07 0.11
0.03 0.03 0.03 0.03 0.02 0.02 0.03 0.04 0.04 0.03 0.03 0.03 0.03 0.04 0.04 0.04 0.05 0.05 0.06 0.08 0.10 0.15 0.22 0.18 0.09 0.05 0.07 0.12 0.17 0.18 0.18 0.19 0.20 0.24 0.16 0.10 0.08 0.07 0.10 0.07 0.04 0.08 0.15
0.03 0.04 0.03 0.03 0.02 0.03 0.04 0.03 0.03 0.02 0.03 0.03 0.04 0.04 0.05 0.06 0.05 0.05 0.07 0.09 0.11 0.15 0.20 0.21 0.11 0.07 0.10 0.16 0.22 0.23 0.20 0.23 0.22 0.21 0.17 0.12 0.08 0.09 0.32 0.39 0.16 0.13 0.18
0.03 0.02 0.02 0.02 0.02 0.03 0.02 0.02 0.01 0.02 0.02 0.03 0.04 0.06 0.07 0.07 0.07 0.09 0.10 0.12 0.15 0.16 0.16 0.16 0.11 0.07 0.10 0.16 0.20 0.27 0.27 0.23 0.22 0.15 0.17 0.14 0.13 0.20 0.58 1.14 0.61 0.29 0.25
0.01 0.01 0.01 0.01 0.02 0.02 0.01 0.00 0.00 0.01 0.01 0.02 0.03 0.06 0.07 0.07 0.11 0.12 0.11 0.12 0.16 0.17 0.17 0.17 0.13 0.10 0.10 0.16 0.20 0.24 0.24 0.27 0.24 0.17 0.20 0.18 0.30 0.62 1.13 1.81 1.39 0.76 0.54
0.01 0.01 0.01 0.01 0.01 0.01 0.00 0.00 0.00 0.00 0.01 0.02 0.04 0.05 0.03 0.03 0.03 0.04 0.07 0.10 0.14 0.17 0.20 0.21 0.18 0.14 0.11 0.14 0.20 0.26 0.26 0.27 0.23 0.15 0.14 0.22 0.50 1.20 1.88 2.28 1.93 1.21 0.92
0.01 0.01 0.01 0.01 0.01 0.01 0.00 0.00 0.00 0.00 0.01 0.03 0.05 0.03 0.02 0.01 0.02 0.03 0.05 0.08 0.12 0.17 0.23 0.27 0.24 0.16 0.14 0.16 0.25 0.31 0.26 0.25 0.26 0.17 0.12 0.20 0.57 1.41 1.84 2.15 2.01 1.38 1.09
0.01 0.01 0.01 0.01 0.01 0.01 0.00 0.00 0.00 0.00 0.01 0.03 0.03 0.03 0.03 0.02 0.03 0.05 0.07 0.12 0.14 0.16 0.23 0.28 0.27 0.23 0.23 0.22 0.24 0.25 0.22 0.23 0.20 0.12 0.09 0.23 0.65 1.30 1.51 1.59 1.76 1.42 1.16
0.01 0.01 0.01 0.01 0.01 0.01 0.00 0.00 0.00 0.01 0.01 0.01 0.02 0.02 0.04 0.03 0.05 0.08 0.11 0.16 0.19 0.25 0.42 0.57 0.54 0.46 0.43 0.36 0.24 0.17 0.17 0.20 0.21 0.13 0.09 0.22 0.55 0.98 1.18 1.23 1.30 1.32 1.23
0.01 0.00 0.01 0.01 0.01 0.01 0.00 0.00 0.01 0.01 0.01 0.01 0.01 0.01 0.03 0.05 0.06 0.09 0.14 0.20 0.27 0.38 0.59 0.77 0.65 0.52 0.42 0.35 0.29 0.19 0.20 0.28 0.26 0.13 0.09 0.17 0.38 0.61 0.87 1.07 0.99 0.92 0.99

GEFSMA_prec_meanprecacc_030.txt.gz
Total_Precipitation_Accumulation
0.02 0.02 0.01 0.01 0.00 0.00 0.00 0.00 0.00 0.00 0.00 0.00 0.00 0.00 0.00 0.00 0.00 0.00 0.00 0.00 0.00 0.00 0.00 0.00 0.00 0.01 0.01 0.01 0.01 0.01 0.01 0.01 0.01 0.01 0.01 0.01 0.00 0.00 0.00 0.00 0.01 0.02 0.04
0.02 0.02 0.02 0.02 0.01 0.00 0.00 0.00 0.00 0.00 0.00 0.00 0.00 0.00 0.00 0.00 0.00 0.00 0.00 0.01 0.01 0.00 0.00 0.00 0.01 0.02 0.02 0.01 0.02 0.02 0.02 0.02 0.02 0.03 0.03 0.02 0.01 0.01 0.01 0.00 0.00 0.01 0.02
0.02 0.01 0.02 0.02 0.01 0.00 0.00 0.00 0.00 0.00 0.00 0.00 0.00 0.00 0.01 0.01 0.01 0.02 0.02 0.02 0.03 0.03 0.02 0.03 0.03 0.03 0.02 0.02 0.02 0.02 0.03 0.03 0.04 0.04 0.04 0.04 0.03 0.02 0.02 0.01 0.01 0.01 0.02
0.00 0.01 0.02 0.02 0.01 0.01 0.01 0.02 0.02 0.03 0.03 0.03 0.03 0.03 0.03 0.03 0.04 0.04 0.03 0.03 0.03 0.03 0.03 0.03 0.02 0.02 0.02 0.02 0.02 0.03 0.04 0.04 0.06 0.06 0.06 0.06 0.06 0.05 0.05 0.04 0.03 0.03 0.02
0.00 0.00 0.01 0.01 0.01 0.01 0.03 0.06 0.08 0.09 0.10 0.09 0.07 0.05 0.05 0.04 0.05 0.05 0.04 0.04 0.04 0.03 0.03 0.03 0.02 0.02 0.03 0.03 0.03 0.03 0.04 0.06 0.08 0.08 0.08 0.09 0.10 0.10 0.08 0.07 0.07 0.05 0.04
0.02 0.02 0.03 0.04 0.04 0.06 0.09 0.12 0.13 0.12 0.09 0.08 0.05 0.04 0.04 0.04 0.04 0.04 0.04 0.03 0.03 0.02 0.02 0.02 0.02 0.03 0.05 0.06 0.06 0.05 0.05 0.09 0.14 0.14 0.10 0.11 0.14 0.14 0.13 0.11 0.11 0.10 0.08
0.12 0.11 0.08 0.10 0.09 0.09 0.08 0.07 0.07 0.07 0.07 0.05 0.05 0.03 0.02 0.02 0.01 0.01 0.01 0.01 0.01 0.01 0.01 0.01 0.01 0.01 0.02 0.05 0.08 0.08 0.08 0.11 0.17 0.17 0.14 0.16 0.19 0.19 0.17 0.16 0.15 0.14 0.13
0.13 0.10 0.09 0.06 0.06 0.06 0.06 0.06 0.05 0.03 0.03 0.02 0.03 0.02 0.01 0.00 0.00 0.00 0.00 0.00 0.00 0.00 0.00 0.01 0.00 0.00 0.00 0.01 0.02 0.07 0.10 0.06 0.06 0.10 0.17 0.22 0.22 0.21 0.22 0.22 0.20 0.19 0.18
0.12 0.08 0.05 0.04 0.03 0.02 0.03 0.03 0.03 0.04 0.03 0.01 0.01 0.02 0.02 0.01 0.00 0.00 0.00 0.00 0.00 0.00 0.00 0.00 0.00 0.00 0.00 0.00 0.00 0.01 0.05 0.08 0.05 0.05 0.12 0.20 0.21 0.20 0.22 0.23 0.24 0.25 0.25
0.05 0.03 0.02 0.02 0.01 0.01 0.01 0.01 0.02 0.02 0.02 0.01 0.00 0.01 0.01 0.02 0.02 0.01 0.00 0.00 0.00 0.00 0.00 0.00 0.00 0.00 0.00 0.00 0.00 0.01 0.02 0.05 0.06 0.05 0.07 0.12 0.16 0.16 0.16 0.17 0.20 0.23 0.26
0.01 0.01 0.01 0.01 0.01 0.01 0.01 0.01 0.01 0.01 0.01 0.01 0.01 0.01 0.01 0.01 0.02 0.03 0.02 0.01 0.00 0.00 0.00 0.00 0.00 0.00 0.00 0.01 0.02 0.03 0.04 0.06 0.07 0.08 0.08 0.08 0.09 0.12 0.14 0.16 0.18 0.22 0.24
0.00 0.00 0.00 0.00 0.01 0.01 0.01 0.01 0.01 0.01 0.01 0.02 0.01 0.01 0.02 0.02 0.02 0.03 0.03 0.02 0.01 0.00 0.00 0.00 0.00 0.00 0.01 0.01 0.03 0.05 0.09 0.12 0.12 0.12 0.10 0.09 0.08 0.08 0.10 0.14 0.17 0.21 0.25
0.00 0.00 0.00 0.00 0.00 0.01 0.01 0.01 0.01 0.01 0.01 0.02 0.02 0.02 0.02 0.02 0.03 0.04 0.06 0.05 0.03 0.01 0.00 0.00 0.00 0.00 0.01 0.01 0.04 0.08 0.15 0.13 0.12 0.11 0.09 0.08 0.07 0.06 0.05 0.07 0.10 0.15 0.21
0.00 0.00 0.00 0.00 0.00 0.01 0.01 0.01 0.01 0.01 0.02 0.03 0.03 0.04 0.04 0.04 0.05 0.07 0.10 0.12 0.11 0.06 0.02 0.00 0.00 0.00 0.01 0.04 0.11 0.14 0.20 0.11 0.09 0.06 0.05 0.03 0.03 0.03 0.03 0.04 0.05 0.08 0.12
0.00 0.00 0.00 0.01 0.02 0.02 0.03 0.03 0.03 0.03 0.04 0.05 0.05 0.05 0.06 0.06 0.07 0.08 0.09 0.12 0.16 0.15 0.08 0.02 0.02 0.03 0.06 0.13 0.24 0.27 0.27 0.19 0.12 0.08 0.05 0.03 0.02 0.02 0.02 0.02 0.02 0.03 0.05
0.01 0.01 0.02 0.03 0.03 0.03 0.03 0.03 0.04 0.05 0.06 0.07 0.08 0.08 0.08 0.08 0.08 0.08 0.09 0.11 0.16 0.23 0.19 0.07 0.03 0.04 0.09 0.14 0.28 0.32 0.36 0.31 0.22 0.14 0.08 0.05 0.03 0.03 0.03 0.03 0.03 0.04 0.06
0.02 0.03 0.03 0.03 0.03 0.02 0.03 0.04 0.06 0.07 0.07 0.06 0.07 0.07 0.07 0.07 0.09 0.09 0.09 0.11 0.12 0.18 0.21 0.11 0.05 0.06 0.11 0.18 0.26 0.29 0.30 0.28 0.25 0.23 0.14 0.10 0.08 0.06 0.04 0.04 0.04 0.07 0.11
0.03 0.03 0.04 0.03 0.03 0.03 0.04 0.06 0.06 0.06 0.06 0.06 0.06 0.07 0.07 0.07 0.08 0.07 0.08 0.09 0.11 0.16 0.23 0.20 0.10 0.06 0.09 0.15 0.20 0.21 0.21 0.20 0.22 0.26 0.18 0.11 0.08 0.07 0.10 0.07 0.05 0.09 0.16
0.04 0.04 0.03 0.03 0.03 0.04 0.06 0.06 0.06 0.05 0.06 0.06 0.06 0.07 0.07 0.08 0.07 0.06 0.08 0.10 0.12 0.16 0.21 0.23 0.14 0.09 0.12 0.19 0.26 0.25 0.22 0.26 0.24 0.23 0.19 0.13 0.09 0.10 0.33 0.40 0.17 0.14 0.19
0.04 0.03 0.03 0.03 0.04 0.05 0.04 0.03 0.03 0.03 0.04 0.04 0.05 0.07 0.08 0.08 0.09 0.11 0.12 0.13 0.16 0.18 0.19 0.20 0.15 0.10 0.13 0.18 0.24 0.31 0.31 0.28 0.27 0.18 0.20 0.18 0.16 0.22 0.59 1.14 0.62 0.30 0.25
0.03 0.03 0.03 0.03 0.03 0.03 0.01 0.00 0.00 0.01 0.01 0.02 0.04 0.07 0.08 0.08 0.12 0.13 0.13 0.14 0.18 0.21 0.22 0.22 0.17 0.14 0.13 0.19 0.24 0.28 0.29 0.30 0.27 0.20 0.24 0.22 0.35 0.66 1.17 1.84 1.41 0.77 0.55
0.03 0.03 0.02 0.01 0.01 0.01 0.00 0.00 0.00 0.00 0.01 0.02 0.05 0.06 0.04 0.04 0.05 0.05 0.08 0.13 0.18 0.22 0.25 0.27 0.23 0.18 0.14 0.17 0.24 0.30 0.31 0.32 0.26 0.18 0.19 0.26 0.54 1.25 1.94 2.33 1.97 1.23 0.93
0.02 0.02 0.01 0.01 0.01 0.01 0.00 0.00 0.00 0.00 0.02 0.04 0.07 0.06 0.04 0.03 0.04 0.07 0.09 0.12 0.15 0.21 0.27 0.32 0.29 0.20 0.17 0.20 0.30 0.37 0.32 0.32 0.32 0.22 0.18 0.25 0.62 1.46 1.89 2.18 2.04 1.39 1.10
0.02 0.02 0.02 0.01 0.02 0.01 0.00 0.00 0.00 0.01 0.02 0.04 0.05 0.05 0.06 0.06 0.07 0.09 0.11 0.15 0.16 0.18 0.25 0.32 0.31 0.27 0.27 0.28 0.33 0.34 0.31 0.32 0.27 0.18 0.16 0.29 0.69 1.34 1.55 1.62 1.78 1.43 1.16
0.02 0.01 0.01 0.01 0.02 0.02 0.00 0.00 0.00 0.01 0.02 0.02 0.03 0.04 0.06 0.06 0.08 0.09 0.14 0.19 0.21 0.27 0.44 0.61 0.58 0.51 0.50 0.46 0.34 0.27 0.27 0.30 0.30 0.20 0.16 0.29 0.59 1.02 1.20 1.26 1.32 1.34 1.24
0.01 0.01 0.01 0.02 0.03 0.03 0.01 0.00 0.01 0.02 0.02 0.02 0.02 0.02 0.04 0.07 0.08 0.11 0.16 0.23 0.31 0.40 0.62 0.81 0.71 0.61 0.52 0.47 0.41 0.29 0.31 0.39 0.36 0.24 0.17 0.25 0.44 0.66 0.91 1.09 1.00 0.93 1.00

GEFSMA_prec_meanprecacc_036.txt.gz
Total_Precipitation_Accumulation
0.03 0.03 0.02 0.01 0.01 0.02 0.02 0.02 0.01 0.01 0.00 0.00 0.00 0.00 0.00 0.00 0.00 0.00 0.00 0.00 0.00 0.01 0.01 0.01 0.01 0.01 0.02 0.02 0.02 0.02 0.03 0.02 0.03 0.03 0.02 0.02 0.01 0.01 0.01 0.01 0.01 0.02 0.04
0.02 0.02 0.02 0.02 0.01 0.01 0.01 0.01 0.00 0.00 0.00 0.00 0.00 0.00 0.00 0.00 0.00 0.00 0.01 0.01 0.01 0.01 0.01 0.02 0.02 0.03 0.03 0.03 0.03 0.04 0.05 0.05 0.05 0.05 0.05 0.04 0.04 0.03 0.03 0.03 0.02 0.02 0.03
0.02 0.01 0.02 0.02 0.01 0.00 0.00 0.00 0.00 0.00 0.00 0.00 0.00 0.00 0.01 0.01 0.02 0.02 0.02 0.02 0.03 0.03 0.04 0.04 0.05 0.05 0.04 0.03 0.05 0.05 0.05 0.05 0.06 0.07 0.07 0.07 0.06 0.06 0.05 0.05 0.05 0.04 0.04
0.00 0.01 0.02 0.02 0.02 0.01 0.01 0.02 0.02 0.03 0.04 0.03 0.03 0.03 0.03 0.03 0.04 0.04 0.04 0.03 0.03 0.03 0.04 0.04 0.04 0.04 0.04 0.04 0.04 0.05 0.06 0.07 0.09 0.09 0.10 0.10 0.10 0.09 0.09 0.09 0.08 0.07 0.06
0.00 0.01 0.02 0.02 0.01 0.02 0.04 0.06 0.09 0.09 0.10 0.09 0.07 0.05 0.05 0.04 0.05 0.05 0.04 0.04 0.04 0.04 0.03 0.03 0.04 0.04 0.04 0.05 0.05 0.05 0.07 0.09 0.11 0.11 0.11 0.12 0.14 0.15 0.14 0.13 0.13 0.11 0.10
0.03 0.03 0.03 0.05 0.05 0.07 0.09 0.12 0.14 0.12 0.09 0.08 0.05 0.04 0.04 0.04 0.04 0.04 0.04 0.03 0.03 0.03 0.02 0.02 0.03 0.04 0.06 0.08 0.07 0.06 0.07 0.11 0.16 0.16 0.12 0.14 0.18 0.18 0.17 0.16 0.17 0.16 0.14
0.14 0.13 0.10 0.11 0.10 0.10 0.09 0.07 0.07 0.07 0.07 0.05 0.05 0.03 0.02 0.02 0.01 0.01 0.01 0.01 0.01 0.01 0.01 0.01 0.01 0.01 0.03 0.06 0.09 0.08 0.09 0.12 0.18 0.19 0.17 0.19 0.23 0.22 0.20 0.19 0.18 0.18 0.19
0.18 0.14 0.12 0.08 0.08 0.07 0.06 0.06 0.05 0.03 0.03 0.02 0.03 0.02 0.01 0.00 0.00 0.00 0.00 0.00 0.00 0.00 0.00 0.01 0.01 0.01 0.00 0.01 0.02 0.07 0.10 0.07 0.06 0.11 0.18 0.24 0.25 0.24 0.24 0.23 0.22 0.21 0.21
0.19 0.13 0.09 0.07 0.05 0.03 0.03 0.03 0.03 0.04 0.03 0.01 0.01 0.02 0.02 0.01 0.00 0.00 0.00 0.00 0.00 0.00 0.00 0.00 0.00 0.00 0.00 0.00 0.00 0.01 0.05 0.08 0.05 0.05 0.12 0.20 0.21 0.21 0.23 0.24 0.25 0.27 0.27
0.13 0.09 0.06 0.05 0.03 0.02 0.02 0.01 0.02 0.02 0.02 0.01 0.00 0.01 0.01 0.02 0.02 0.01 0.00 0.00 0.00 0.00 0.00 0.00 0.00 0.00 0.00 0.00 0.00 0.01 0.02 0.05 0.06 0.05 0.07 0.12 0.16 0.17 0.17 0.18 0.21 0.25 0.28
0.10 0.06 0.05 0.04 0.03 0.02 0.01 0.01 0.01 0.01 0.01 0.01 0.01 0.01 0.01 0.01 0.02 0.03 0.02 0.01 0.00 0.00 0.00 0.00 0.00 0.00 0.00 0.01 0.02 0.03 0.04 0.06 0.07 0.08 0.08 0.08 0.10 0.13 0.15 0.17 0.20 0.24 0.26
0.07 0.06 0.04 0.03 0.02 0.01 0.01 0.01 0.01 0.01 0.01 0.02 0.01 0.01 0.02 0.02 0.02 0.03 0.03 0.02 0.01 0.00 0.00 0.00 0.00 0.00 0.01 0.01 0.03 0.05 0.09 0.12 0.12 0.12 0.11 0.10 0.09 0.10 0.12 0.16 0.20 0.23 0.28
0.04 0.03 0.02 0.01 0.01 0.01 0.01 0.01 0.01 0.01 0.01 0.02 0.02 0.02 0.02 0.02 0.03 0.04 0.06 0.05 0.03 0.01 0.00 0.00 0.00 0.00 0.01 0.01 0.04 0.08 0.15 0.13 0.12 0.11 0.10 0.09 0.08 0.07 0.07 0.08 0.12 0.17 0.23
0.02 0.01 0.01 0.01 0.01 0.01 0.01 0.01 0.01 0.01 0.02 0.03 0.03 0.04 0.04 0.04 0.05 0.07 0.10 0.12 0.11 0.06 0.02 0.00 0.00 0.00 0.01 0.04 0.11 0.14 0.20 0.12 0.10 0.07 0.06 0.05 0.04 0.04 0.05 0.05 0.07 0.09 0.13
0.01 0.01 0.01 0.01 0.02 0.02 0.03 0.03 0.03 0.03 0.04 0.05 0.05 0.05 0.06 0.06 0.07 0.08 0.10 0.13 0.17 0.15 0.08 0.02 0.02 0.03 0.06 0.13 0.24 0.27 0.27 0.19 0.13 0.09 0.06 0.05 0.04 0.04 0.04 0.04 0.04 0.05 0.06
0.02 0.02 0.02 0.03 0.03 0.03 0.03 0.03 0.04 0.05 0.06 0.07 0.08 0.08 0.08 0.08 0.08 0.09 0.09 0.11 0.17 0.24 0.20 0.07 0.03 0.04 0.09 0.14 0.28 0.33 0.36 0.32 0.22 0.14 0.09 0.06 0.05 0.04 0.05 0.04 0.04 0.05 0.07
0.02 0.03 0.03 0.03 0.03 0.02 0.03 0.04 0.06 0.07 0.07 0.07 0.07 0.07 0.07 0.08 0.09 0.09 0.10 0.11 0.13 0.19 0.22 0.11 0.05 0.06 0.11 0.18 0.26 0.29 0.30 0.28 0.25 0.23 0.16 0.12 0.10 0.07 0.06 0.05 0.06 0.09 0.13
0.03 0.03 0.04 0.03 0.03 0.03 0.04 0.06 0.06 0.06 0.07 0.07 0.07 0.07 0.07 0.07 0.08 0.07 0.08 0.09 0.11 0.16 0.24 0.20 0.10 0.06 0.09 0.15 0.20 0.22 0.21 0.20 0.22 0.27 0.20 0.14 0.10 0.09 0.12 0.09 0.06 0.10 0.17
0.04 0.04 0.04 0.04 0.04 0.05 0.06 0.06 0.06 0.06 0.06 0.06 0.06 0.07 0.08 0.08 0.07 0.06 0.08 0.10 0.12 0.16 0.22 0.23 0.14 0.10 0.12 0.19 0.26 0.26 0.22 0.26 0.25 0.24 0.20 0.15 0.12 0.13 0.35 0.41 0.18 0.14 0.19
0.05 0.05 0.04 0.04 0.05 0.06 0.05 0.03 0.03 0.03 0.04 0.04 0.05 0.07 0.08 0.09 0.09 0.11 0.12 0.13 0.16 0.19 0.19 0.21 0.16 0.11 0.14 0.18 0.24 0.31 0.31 0.28 0.27 0.19 0.21 0.19 0.17 0.23 0.61 1.16 0.63 0.31 0.26
0.05 0.05 0.05 0.05 0.04 0.03 0.01 0.00 0.00 0.01 0.01 0.02 0.04 0.07 0.08 0.09 0.13 0.15 0.14 0.16 0.20 0.23 0.24 0.24 0.20 0.16 0.15 0.20 0.25 0.29 0.30 0.31 0.27 0.20 0.24 0.23 0.36 0.67 1.18 1.85 1.43 0.79 0.56
0.06 0.04 0.03 0.02 0.02 0.01 0.00 0.00 0.00 0.00 0.01 0.02 0.05 0.06 0.04 0.04 0.05 0.06 0.10 0.16 0.22 0.26 0.30 0.31 0.27 0.22 0.16 0.19 0.26 0.32 0.34 0.35 0.29 0.19 0.20 0.26 0.54 1.25 1.94 2.34 1.98 1.25 0.94
0.03 0.02 0.02 0.01 0.01 0.01 0.00 0.00 0.00 0.00 0.02 0.04 0.07 0.06 0.04 0.03 0.05 0.07 0.10 0.14 0.17 0.23 0.31 0.37 0.34 0.23 0.20 0.23 0.35 0.43 0.39 0.38 0.36 0.24 0.21 0.28 0.63 1.47 1.90 2.20 2.06 1.42 1.13
0.02 0.02 0.02 0.01 0.02 0.01 0.00 0.00 0.00 0.01 0.02 0.04 0.05 0.06 0.07 0.06 0.07 0.10 0.11 0.16 0.17 0.19 0.27 0.34 0.34 0.29 0.30 0.32 0.39 0.42 0.38 0.38 0.31 0.21 0.21 0.34 0.71 1.36 1.57 1.65 1.82 1.46 1.19
0.02 0.01 0.01 0.02 0.02 0.03 0.00 0.00 0.00 0.01 0.02 0.02 0.03 0.04 0.06 0.07 0.08 0.11 0.15 0.21 0.22 0.28 0.45 0.63 0.62 0.56 0.56 0.53 0.42 0.34 0.35 0.39 0.37 0.24 0.21 0.35 0.64 1.05 1.23 1.28 1.35 1.38 1.28
0.01 0.01 0.01 0.02 0.03 0.04 0.01 0.00 0.01 0.02 0.02 0.02 0.02 0.02 0.05 0.08 0.09 0.13 0.17 0.25 0.33 0.42 0.64 0.83 0.73 0.65 0.56 0.53 0.48 0.36 0.39 0.48 0.45 0.33 0.25 0.33 0.50 0.71 0.96 1.12 1.03 0.97 1.03

GEFSMA_prec_meanprecacc_042.txt.gz
Total_Precipitation_Accumulation
0.03 0.03 0.02 0.01 0.01 0.02 0.02 0.02 0.01 0.01 0.00 0.00 0.00 0.00 0.00 0.00 0.00 0.00 0.00 0.00 0.01 0.02 0.03 0.03 0.03 0.03 0.03 0.04 0.04 0.05 0.04 0.04 0.04 0.04 0.03 0.02 0.02 0.02 0.02 0.02 0.03 0.04 0.06
0.02 0.02 0.02 0.02 0.01 0.01 0.02 0.01 0.00 0.01 0.00 0.00 0.00 0.00 0.00 0.00 0.00 0.00 0.01 0.01 0.02 0.02 0.03 0.05 0.05 0.07 0.06 0.07 0.08 0.07 0.07 0.07 0.07 0.07 0.07 0.06 0.05 0.04 0.04 0.04 0.04 0.04 0.05
0.02 0.02 0.04 0.03 0.02 0.01 0.02 0.02 0.01 0.01 0.01 0.01 0.01 0.01 0.01 0.01 0.02 0.02 0.02 0.02 0.03 0.04 0.05 0.07 0.07 0.08 0.07 0.08 0.09 0.09 0.08 0.08 0.09 0.09 0.09 0.09 0.08 0.07 0.06 0.06 0.06 0.06 0.05
0.03 0.04 0.05 0.04 0.04 0.03 0.04 0.05 0.05 0.05 0.05 0.04 0.04 0.04 0.04 0.04 0.04 0.04 0.04 0.04 0.03 0.04 0.04 0.05 0.06 0.07 0.07 0.08 0.09 0.10 0.10 0.10 0.12 0.12 0.12 0.12 0.12 0.11 0.11 0.10 0.09 0.09 0.08
0.06 0.06 0.07 0.07 0.07 0.07 0.09 0.11 0.13 0.12 0.12 0.11 0.09 0.07 0.06 0.04 0.05 0.05 0.04 0.04 0.04 0.04 0.03 0.04 0.05 0.05 0.06 0.07 0.07 0.08 0.10 0.13 0.15 0.15 0.15 0.17 0.19 0.19 0.16 0.15 0.14 0.12 0.11
0.14 0.13 0.14 0.15 0.15 0.16 0.17 0.19 0.19 0.15 0.12 0.10 0.07 0.05 0.05 0.04 0.04 0.04 0.04 0.03 0.03 0.03 0.02 0.02 0.03 0.04 0.07 0.08 0.09 0.08 0.10 0.14 0.19 0.19 0.16 0.18 0.23 0.22 0.19 0.18 0.18 0.17 0.15
0.34 0.29 0.26 0.26 0.23 0.21 0.17 0.13 0.11 0.10 0.09 0.06 0.05 0.03 0.02 0.02 0.01 0.01 0.01 0.01 0.01 0.01 0.01 0.01 0.01 0.01 0.03 0.06 0.09 0.09 0.10 0.13 0.19 0.20 0.18 0.22 0.26 0.25 0.22 0.20 0.20 0.19 0.20
0.49 0.42 0.35 0.26 0.21 0.16 0.13 0.11 0.09 0.06 0.04 0.03 0.03 0.02 0.01 0.00 0.00 0.00 0.00 0.00 0.00 0.00 0.00 0.01 0.01 0.01 0.00 0.01 0.02 0.07 0.10 0.07 0.06 0.11 0.18 0.24 0.26 0.25 0.25 0.25 0.24 0.22 0.22
0.55 0.45 0.36 0.27 0.19 0.14 0.12 0.10 0.08 0.07 0.04 0.02 0.01 0.02 0.02 0.01 0.00 0.00 0.00 0.00 0.00 0.00 0.00 0.00 0.00 0.00 0.00 0.00 0.00 0.01 0.05 0.08 0.05 0.05 0.12 0.21 0.22 0.22 0.24 0.26 0.27 0.28 0.29
0.49 0.40 0.32 0.26 0.21 0.18 0.13 0.07 0.04 0.04 0.03 0.01 0.01 0.01 0.01 0.02 0.02 0.01 0.00 0.00 0.00 0.00 0.00 0.00 0.00 0.00 0.00 0.00 0.00 0.01 0.02 0.05 0.06 0.05 0.08 0.12 0.17 0.17 0.18 0.19 0.23 0.27 0.29
0.40 0.34 0.30 0.27 0.23 0.15 0.08 0.03 0.02 0.02 0.01 0.01 0.01 0.01 0.01 0.01 0.02 0.03 0.02 0.01 0.00 0.00 0.00 0.00 0.00 0.00 0.00 0.01 0.02 0.03 0.04 0.06 0.07 0.08 0.08 0.08 0.10 0.13 0.16 0.18 0.22 0.26 0.29
0.35 0.30 0.25 0.19 0.12 0.07 0.04 0.02 0.02 0.01 0.01 0.02 0.01 0.01 0.02 0.02 0.02 0.03 0.03 0.02 0.01 0.00 0.00 0.00 0.00 0.00 0.01 0.01 0.03 0.05 0.09 0.12 0.12 0.13 0.11 0.10 0.09 0.10 0.13 0.18 0.23 0.28 0.34
0.25 0.18 0.12 0.08 0.05 0.03 0.02 0.01 0.01 0.01 0.01 0.02 0.02 0.02 0.02 0.02 0.03 0.04 0.06 0.05 0.03 0.01 0.00 0.00 0.00 0.00 0.01 0.01 0.04 0.08 0.15 0.13 0.12 0.12 0.10 0.09 0.08 0.07 0.07 0.09 0.14 0.20 0.28
0.12 0.08 0.06 0.04 0.03 0.02 0.02 0.02 0.01 0.01 0.02 0.03 0.03 0.04 0.04 0.04 0.05 0.07 0.10 0.12 0.11 0.06 0.02 0.00 0.00 0.00 0.01 0.04 0.11 0.14 0.20 0.12 0.10 0.07 0.06 0.05 0.04 0.04 0.05 0.06 0.07 0.10 0.15
0.06 0.04 0.03 0.03 0.02 0.03 0.03 0.03 0.03 0.03 0.04 0.05 0.05 0.05 0.06 0.06 0.07 0.08 0.10 0.13 0.17 0.16 0.09 0.02 0.02 0.03 0.06 0.13 0.24 0.27 0.27 0.19 0.13 0.09 0.06 0.05 0.04 0.04 0.04 0.04 0.05 0.06 0.07
0.04 0.04 0.04 0.04 0.03 0.03 0.03 0.04 0.04 0.05 0.06 0.07 0.08 0.08 0.08 0.08 0.08 0.09 0.09 0.11 0.17 0.24 0.20 0.07 0.03 0.04 0.09 0.14 0.28 0.33 0.36 0.32 0.22 0.14 0.09 0.06 0.05 0.05 0.05 0.05 0.05 0.06 0.08
0.03 0.04 0.04 0.04 0.03 0.03 0.03 0.05 0.06 0.07 0.07 0.07 0.07 0.08 0.07 0.08 0.09 0.09 0.10 0.11 0.13 0.19 0.22 0.11 0.05 0.06 0.11 0.18 0.26 0.29 0.30 0.28 0.25 0.23 0.16 0.12 0.10 0.09 0.08 0.07 0.08 0.11 0.15
0.04 0.04 0.04 0.04 0.03 0.03 0.05 0.06 0.07 0.06 0.07 0.07 0.07 0.07 0.07 0.07 0.08 0.07 0.08 0.09 0.11 0.16 0.24 0.20 0.10 0.06 0.09 0.15 0.20 0.22 0.21 0.20 0.22 0.27 0.21 0.14 0.11 0.11 0.14 0.11 0.09 0.12 0.19
0.05 0.05 0.04 0.04 0.05 0.05 0.07 0.06 0.06 0.06 0.06 0.06 0.06 0.07 0.08 0.08 0.07 0.06 0.08 0.10 0.12 0.16 0.22 0.24 0.14 0.10 0.13 0.19 0.26 0.26 0.22 0.26 0.25 0.24 0.20 0.15 0.13 0.14 0.37 0.43 0.20 0.16 0.20
0.06 0.06 0.06 0.05 0.06 0.06 0.05 0.04 0.03 0.03 0.04 0.04 0.05 0.07 0.08 0.09 0.09 0.11 0.12 0.13 0.17 0.19 0.20 0.21 0.16 0.11 0.14 0.18 0.25 0.32 0.32 0.29 0.28 0.19 0.21 0.19 0.17 0.24 0.62 1.17 0.64 0.32 0.27
0.08 0.07 0.07 0.06 0.05 0.04 0.02 0.00 0.00 0.01 0.01 0.02 0.04 0.07 0.08 0.09 0.13 0.15 0.15 0.16 0.21 0.24 0.25 0.26 0.22 0.18 0.16 0.21 0.26 0.30 0.31 0.32 0.28 0.21 0.24 0.23 0.36 0.67 1.18 1.86 1.44 0.81 0.58
0.08 0.06 0.04 0.02 0.02 0.01 0.00 0.00 0.00 0.00 0.01 0.02 0.05 0.06 0.04 0.04 0.05 0.06 0.11 0.17 0.24 0.29 0.33 0.35 0.31 0.25 0.18 0.20 0.28 0.35 0.36 0.37 0.31 0.19 0.20 0.27 0.55 1.25 1.94 2.34 1.99 1.25 0.95
0.04 0.03 0.02 0.01 0.01 0.01 0.00 0.00 0.00 0.00 0.02 0.04 0.07 0.06 0.04 0.03 0.05 0.08 0.11 0.14 0.18 0.24 0.34 0.41 0.38 0.27 0.23 0.26 0.39 0.49 0.44 0.42 0.40 0.26 0.23 0.31 0.64 1.47 1.90 2.20 2.07 1.42 1.13
0.03 0.02 0.02 0.01 0.02 0.01 0.00 0.00 0.00 0.01 0.02 0.04 0.05 0.06 0.07 0.06 0.07 0.11 0.12 0.16 0.17 0.19 0.28 0.35 0.36 0.32 0.33 0.36 0.44 0.48 0.44 0.44 0.35 0.22 0.24 0.40 0.73 1.37 1.58 1.65 1.83 1.48 1.21
0.02 0.01 0.01 0.02 0.02 0.03 0.00 0.00 0.00 0.01 0.02 0.02 0.03 0.04 0.06 0.07 0.09 0.12 0.16 0.22 0.23 0.29 0.46 0.64 0.64 0.58 0.59 0.58 0.48 0.40 0.42 0.45 0.41 0.26 0.24 0.41 0.69 1.08 1.24 1.29 1.37 1.40 1.30
0.01 0.01 0.01 0.02 0.03 0.04 0.01 0.00 0.01 0.02 0.02 0.02 0.02 0.02 0.05 0.08 0.10 0.14 0.18 0.27 0.34 0.43 0.65 0.84 0.75 0.67 0.59 0.57 0.54 0.42 0.45 0.55 0.51 0.38 0.29 0.38 0.55 0.74 1.00 1.14 1.04 0.99 1.06

GEFSMA_prec_meanprecacc_048.txt.gz
Total_Precipitation_Accumulation
0.03 0.04 0.04 0.03 0.03 0.04 0.04 0.03 0.02 0.01 0.00 0.00 0.00 0.00 0.00 0.00 0.00 0.00 0.00 0.00 0.01 0.02 0.03 0.04 0.04 0.04 0.05 0.06 0.06 0.06 0.06 0.05 0.05 0.05 0.04 0.03 0.02 0.02 0.02 0.02 0.03 0.05 0.07
0.04 0.04 0.05 0.06 0.04 0.04 0.05 0.04 0.03 0.03 0.01 0.01 0.00 0.00 0.00 0.00 0.00 0.00 0.01 0.01 0.02 0.02 0.03 0.05 0.06 0.08 0.08 0.09 0.10 0.09 0.08 0.08 0.09 0.09 0.08 0.07 0.06 0.05 0.05 0.04 0.04 0.04 0.05
0.04 0.05 0.07 0.07 0.06 0.05 0.05 0.06 0.05 0.05 0.04 0.03 0.03 0.03 0.03 0.02 0.02 0.02 0.03 0.03 0.03 0.04 0.05 0.07 0.08 0.08 0.07 0.09 0.12 0.12 0.11 0.11 0.11 0.12 0.11 0.11 0.10 0.08 0.08 0.07 0.07 0.06 0.06
0.10 0.12 0.14 0.13 0.12 0.11 0.11 0.13 0.13 0.12 0.11 0.09 0.09 0.08 0.07 0.06 0.05 0.05 0.04 0.04 0.04 0.04 0.04 0.06 0.06 0.07 0.07 0.09 0.10 0.12 0.13 0.14 0.15 0.15 0.15 0.15 0.14 0.13 0.12 0.12 0.11 0.10 0.09
0.19 0.21 0.23 0.24 0.23 0.23 0.25 0.25 0.26 0.24 0.22 0.20 0.16 0.12 0.09 0.06 0.06 0.06 0.05 0.04 0.04 0.04 0.03 0.04 0.05 0.06 0.06 0.08 0.08 0.09 0.12 0.15 0.17 0.17 0.17 0.19 0.21 0.21 0.19 0.17 0.16 0.14 0.12
0.35 0.37 0.39 0.43 0.44 0.44 0.43 0.42 0.39 0.34 0.27 0.21 0.14 0.10 0.07 0.05 0.05 0.05 0.04 0.04 0.03 0.03 0.02 0.02 0.03 0.04 0.07 0.09 0.09 0.09 0.10 0.15 0.21 0.21 0.18 0.21 0.26 0.25 0.22 0.20 0.21 0.19 0.17
0.74 0.69 0.66 0.65 0.59 0.55 0.49 0.41 0.35 0.30 0.25 0.19 0.13 0.08 0.05 0.03 0.02 0.02 0.01 0.01 0.01 0.01 0.01 0.01 0.01 0.01 0.03 0.06 0.09 0.09 0.10 0.13 0.20 0.21 0.19 0.23 0.27 0.26 0.24 0.22 0.21 0.20 0.21
1.13 1.03 0.93 0.76 0.65 0.56 0.50 0.42 0.35 0.26 0.18 0.12 0.09 0.07 0.04 0.02 0.01 0.01 0.01 0.01 0.00 0.00 0.00 0.01 0.01 0.01 0.00 0.01 0.02 0.07 0.10 0.07 0.06 0.11 0.18 0.25 0.26 0.26 0.26 0.26 0.25 0.24 0.24
1.25 1.10 0.93 0.79 0.68 0.62 0.58 0.50 0.38 0.28 0.18 0.10 0.06 0.06 0.05 0.03 0.01 0.01 0.00 0.00 0.00 0.00 0.00 0.00 0.00 0.00 0.00 0.00 0.00 0.01 0.05 0.08 0.05 0.05 0.12 0.21 0.22 0.22 0.24 0.26 0.28 0.30 0.31
0.95 0.81 0.73 0.69 0.67 0.63 0.56 0.44 0.32 0.22 0.15 0.08 0.05 0.04 0.03 0.03 0.03 0.02 0.00 0.00 0.00 0.00 0.00 0.00 0.00 0.00 0.00 0.00 0.00 0.01 0.02 0.05 0.06 0.05 0.08 0.12 0.17 0.18 0.18 0.20 0.23 0.28 0.31
0.74 0.66 0.62 0.60 0.55 0.45 0.34 0.25 0.19 0.14 0.08 0.05 0.03 0.03 0.02 0.02 0.02 0.03 0.02 0.01 0.00 0.00 0.00 0.00 0.00 0.00 0.00 0.01 0.02 0.03 0.04 0.06 0.07 0.08 0.08 0.08 0.10 0.14 0.16 0.19 0.23 0.27 0.31
0.56 0.47 0.39 0.32 0.26 0.20 0.15 0.10 0.06 0.04 0.03 0.03 0.03 0.02 0.03 0.03 0.03 0.03 0.04 0.02 0.01 0.00 0.00 0.00 0.00 0.00 0.01 0.01 0.03 0.05 0.09 0.12 0.12 0.13 0.12 0.10 0.09 0.10 0.13 0.19 0.24 0.29 0.35
0.35 0.27 0.20 0.16 0.13 0.09 0.06 0.04 0.03 0.03 0.02 0.03 0.03 0.03 0.03 0.03 0.03 0.04 0.06 0.05 0.03 0.01 0.00 0.00 0.00 0.00 0.01 0.01 0.04 0.08 0.15 0.13 0.12 0.12 0.10 0.09 0.08 0.07 0.08 0.10 0.14 0.21 0.29
0.16 0.12 0.09 0.07 0.06 0.05 0.04 0.03 0.02 0.02 0.03 0.03 0.03 0.04 0.05 0.04 0.05 0.07 0.10 0.13 0.11 0.06 0.02 0.01 0.00 0.00 0.01 0.04 0.11 0.14 0.20 0.12 0.10 0.07 0.06 0.05 0.04 0.05 0.05 0.06 0.08 0.11 0.16
0.07 0.06 0.05 0.04 0.04 0.04 0.04 0.04 0.03 0.04 0.04 0.05 0.05 0.06 0.07 0.07 0.08 0.09 0.10 0.13 0.18 0.16 0.09 0.02 0.02 0.03 0.06 0.13 0.24 0.28 0.27 0.19 0.13 0.09 0.06 0.05 0.04 0.04 0.05 0.05 0.05 0.06 0.08
0.05 0.05 0.05 0.05 0.04 0.04 0.04 0.05 0.05 0.05 0.07 0.07 0.09 0.09 0.09 0.08 0.09 0.09 0.10 0.12 0.17 0.25 0.20 0.07 0.03 0.05 0.09 0.14 0.28 0.33 0.36 0.32 0.23 0.14 0.09 0.06 0.05 0.05 0.06 0.06 0.06 0.07 0.09
0.04 0.05 0.05 0.05 0.05 0.04 0.04 0.05 0.07 0.07 0.08 0.07 0.07 0.08 0.07 0.08 0.09 0.09 0.10 0.11 0.13 0.19 0.22 0.11 0.05 0.06 0.11 0.19 0.27 0.30 0.31 0.29 0.26 0.24 0.16 0.12 0.11 0.09 0.08 0.08 0.09 0.13 0.17
0.04 0.05 0.05 0.05 0.04 0.04 0.05 0.07 0.07 0.06 0.07 0.07 0.07 0.07 0.07 0.07 0.08 0.07 0.08 0.09 0.11 0.17 0.25 0.21 0.10 0.07 0.10 0.16 0.21 0.23 0.22 0.21 0.23 0.27 0.21 0.14 0.12 0.11 0.15 0.13 0.10 0.14 0.20
0.06 0.06 0.05 0.05 0.05 0.06 0.07 0.07 0.06 0.06 0.06 0.06 0.06 0.07 0.08 0.08 0.07 0.07 0.09 0.10 0.13 0.17 0.23 0.26 0.16 0.11 0.13 0.20 0.28 0.28 0.24 0.29 0.27 0.25 0.21 0.16 0.13 0.14 0.38 0.44 0.21 0.17 0.20
0.08 0.07 0.07 0.06 0.06 0.07 0.06 0.04 0.03 0.03 0.04 0.04 0.05 0.07 0.09 0.09 0.09 0.12 0.14 0.16 0.19 0.22 0.22 0.24 0.19 0.14 0.16 0.20 0.28 0.35 0.35 0.32 0.30 0.20 0.22 0.20 0.19 0.25 0.62 1.17 0.64 0.33 0.27
0.09 0.08 0.08 0.06 0.05 0.04 0.02 0.01 0.01 0.01 0.02 0.02 0.04 0.07 0.08 0.09 0.13 0.16 0.17 0.20 0.26 0.30 0.30 0.31 0.26 0.21 0.19 0.25 0.31 0.36 0.36 0.36 0.30 0.23 0.28 0.26 0.39 0.71 1.22 1.88 1.45 0.81 0.59
0.10 0.07 0.04 0.03 0.02 0.02 0.01 0.01 0.01 0.01 0.01 0.03 0.05 0.07 0.05 0.04 0.06 0.07 0.11 0.19 0.27 0.34 0.38 0.41 0.37 0.31 0.23 0.26 0.34 0.41 0.42 0.42 0.35 0.23 0.25 0.31 0.58 1.29 1.98 2.38 2.01 1.26 0.95
0.05 0.04 0.03 0.02 0.02 0.02 0.00 0.00 0.00 0.00 0.02 0.05 0.08 0.07 0.05 0.04 0.06 0.10 0.12 0.15 0.19 0.26 0.37 0.47 0.46 0.34 0.30 0.33 0.47 0.56 0.50 0.48 0.45 0.31 0.30 0.36 0.68 1.52 1.94 2.23 2.08 1.43 1.13
0.03 0.03 0.02 0.02 0.02 0.02 0.00 0.00 0.00 0.01 0.03 0.05 0.06 0.07 0.09 0.09 0.10 0.12 0.13 0.18 0.20 0.23 0.32 0.41 0.43 0.39 0.39 0.42 0.50 0.54 0.50 0.49 0.39 0.28 0.32 0.46 0.78 1.42 1.61 1.70 1.86 1.48 1.21
0.02 0.02 0.02 0.02 0.03 0.04 0.01 0.00 0.00 0.02 0.02 0.03 0.04 0.05 0.08 0.10 0.10 0.12 0.17 0.25 0.26 0.32 0.48 0.66 0.66 0.61 0.62 0.61 0.51 0.45 0.49 0.51 0.45 0.29 0.30 0.47 0.73 1.12 1.28 1.35 1.42 1.41 1.31
0.02 0.01 0.02 0.03 0.04 0.05 0.01 0.00 0.01 0.02 0.03 0.03 0.03 0.04 0.07 0.09 0.10 0.14 0.20 0.30 0.39 0.47 0.68 0.88 0.79 0.71 0.63 0.62 0.58 0.47 0.52 0.61 0.56 0.41 0.33 0.42 0.58 0.78 1.03 1.18 1.10 1.04 1.11

GEFSMA_prec_meanprecacc_054.txt.gz
Total_Precipitation_Accumulation
0.07 0.07 0.07 0.07 0.07 0.10 0.12 0.11 0.09 0.03 0.02 0.01 0.01 0.03 0.03 0.01 0.01 0.02 0.01 0.01 0.01 0.02 0.04 0.04 0.04 0.05 0.05 0.07 0.07 0.07 0.07 0.06 0.06 0.06 0.04 0.04 0.03 0.03 0.03 0.03 0.03 0.05 0.07
0.07 0.09 0.10 0.12 0.08 0.08 0.10 0.10 0.10 0.06 0.03 0.02 0.02 0.03 0.05 0.02 0.02 0.02 0.01 0.02 0.03 0.03 0.04 0.06 0.07 0.08 0.08 0.10 0.12 0.11 0.10 0.10 0.10 0.10 0.10 0.08 0.07 0.06 0.05 0.05 0.04 0.04 0.05
0.08 0.10 0.15 0.17 0.14 0.11 0.10 0.10 0.09 0.10 0.08 0.07 0.07 0.07 0.06 0.05 0.05 0.04 0.04 0.03 0.05 0.06 0.08 0.09 0.09 0.09 0.08 0.10 0.13 0.14 0.14 0.13 0.14 0.14 0.14 0.13 0.11 0.10 0.09 0.08 0.08 0.08 0.07
0.14 0.18 0.23 0.24 0.24 0.21 0.21 0.22 0.21 0.19 0.18 0.16 0.15 0.14 0.13 0.11 0.09 0.07 0.06 0.05 0.05 0.05 0.06 0.07 0.07 0.07 0.08 0.09 0.11 0.14 0.16 0.17 0.18 0.17 0.17 0.18 0.17 0.15 0.14 0.14 0.13 0.12 0.10
0.22 0.28 0.32 0.35 0.36 0.37 0.38 0.37 0.39 0.37 0.36 0.33 0.26 0.22 0.18 0.14 0.13 0.10 0.08 0.07 0.06 0.05 0.04 0.04 0.05 0.06 0.07 0.08 0.09 0.10 0.13 0.17 0.20 0.20 0.20 0.23 0.24 0.23 0.20 0.18 0.17 0.15 0.14
0.39 0.45 0.48 0.55 0.57 0.58 0.58 0.57 0.54 0.48 0.42 0.36 0.28 0.21 0.18 0.14 0.11 0.09 0.07 0.05 0.05 0.04 0.03 0.03 0.03 0.04 0.07 0.09 0.09 0.09 0.11 0.16 0.22 0.22 0.19 0.22 0.28 0.27 0.23 0.21 0.22 0.20 0.19
0.82 0.79 0.77 0.77 0.72 0.68 0.64 0.57 0.51 0.46 0.42 0.35 0.28 0.20 0.13 0.08 0.07 0.05 0.04 0.03 0.02 0.02 0.02 0.01 0.02 0.02 0.03 0.06 0.09 0.09 0.10 0.14 0.21 0.22 0.21 0.24 0.29 0.28 0.25 0.24 0.23 0.22 0.23
1.24 1.13 1.02 0.86 0.75 0.68 0.64 0.58 0.52 0.46 0.38 0.29 0.24 0.21 0.14 0.08 0.04 0.03 0.03 0.02 0.01 0.01 0.01 0.01 0.01 0.01 0.00 0.01 0.02 0.07 0.10 0.07 0.07 0.12 0.19 0.25 0.27 0.26 0.27 0.27 0.26 0.26 0.26
1.36 1.21 1.02 0.88 0.78 0.71 0.69 0.64 0.54 0.46 0.36 0.25 0.19 0.17 0.15 0.09 0.04 0.02 0.02 0.01 0.01 0.01 0.00 0.00 0.01 0.00 0.00 0.00 0.00 0.01 0.05 0.08 0.05 0.05 0.12 0.21 0.22 0.22 0.24 0.27 0.29 0.32 0.33
1.02 0.88 0.79 0.75 0.73 0.70 0.64 0.52 0.40 0.32 0.25 0.17 0.12 0.09 0.08 0.06 0.06 0.04 0.01 0.01 0.01 0.00 0.00 0.00 0.00 0.00 0.00 0.00 0.00 0.01 0.02 0.05 0.06 0.05 0.08 0.12 0.17 0.18 0.18 0.20 0.24 0.29 0.32
0.78 0.69 0.64 0.62 0.58 0.48 0.38 0.28 0.22 0.18 0.13 0.09 0.06 0.05 0.04 0.04 0.04 0.05 0.03 0.01 0.01 0.00 0.00 0.00 0.00 0.00 0.00 0.01 0.02 0.03 0.04 0.06 0.07 0.08 0.08 0.08 0.10 0.14 0.16 0.19 0.23 0.28 0.32
0.59 0.49 0.40 0.33 0.27 0.21 0.16 0.11 0.08 0.06 0.05 0.05 0.05 0.04 0.05 0.05 0.05 0.06 0.06 0.04 0.02 0.01 0.01 0.01 0.01 0.01 0.01 0.01 0.03 0.05 0.09 0.12 0.12 0.13 0.12 0.10 0.09 0.11 0.14 0.19 0.24 0.30 0.36
0.37 0.28 0.21 0.16 0.13 0.10 0.07 0.05 0.04 0.04 0.04 0.05 0.05 0.05 0.04 0.04 0.05 0.06 0.08 0.06 0.05 0.02 0.01 0.01 0.00 0.01 0.01 0.01 0.04 0.08 0.15 0.13 0.12 0.12 0.10 0.09 0.08 0.07 0.08 0.10 0.15 0.22 0.30
0.16 0.12 0.09 0.07 0.06 0.05 0.04 0.03 0.03 0.03 0.04 0.04 0.04 0.05 0.06 0.05 0.06 0.08 0.11 0.14 0.12 0.07 0.02 0.01 0.00 0.00 0.01 0.04 0.11 0.14 0.20 0.12 0.10 0.08 0.06 0.05 0.05 0.05 0.06 0.07 0.09 0.12 0.16
0.08 0.06 0.05 0.05 0.04 0.04 0.04 0.04 0.04 0.04 0.05 0.06 0.06 0.06 0.07 0.07 0.08 0.09 0.10 0.14 0.18 0.17 0.09 0.03 0.02 0.03 0.06 0.13 0.24 0.28 0.27 0.19 0.13 0.09 0.07 0.05 0.04 0.05 0.05 0.06 0.06 0.07 0.09
0.06 0.05 0.05 0.05 0.05 0.04 0.04 0.05 0.05 0.06 0.07 0.08 0.09 0.09 0.09 0.09 0.09 0.09 0.10 0.12 0.18 0.25 0.20 0.07 0.03 0.05 0.09 0.14 0.28 0.33 0.36 0.32 0.23 0.15 0.10 0.07 0.06 0.06 0.06 0.07 0.07 0.08 0.10
0.05 0.05 0.05 0.05 0.05 0.04 0.04 0.06 0.07 0.08 0.08 0.07 0.07 0.08 0.08 0.08 0.10 0.09 0.10 0.11 0.13 0.19 0.23 0.11 0.05 0.06 0.12 0.19 0.27 0.30 0.31 0.30 0.26 0.24 0.16 0.13 0.11 0.09 0.09 0.09 0.10 0.14 0.17
0.05 0.05 0.05 0.05 0.04 0.04 0.05 0.07 0.07 0.06 0.07 0.07 0.07 0.07 0.07 0.08 0.08 0.08 0.09 0.10 0.12 0.17 0.26 0.22 0.11 0.07 0.10 0.17 0.22 0.25 0.23 0.22 0.24 0.28 0.21 0.15 0.12 0.12 0.15 0.13 0.11 0.14 0.20
0.06 0.06 0.05 0.05 0.05 0.06 0.07 0.07 0.06 0.06 0.06 0.06 0.07 0.07 0.08 0.09 0.08 0.08 0.10 0.12 0.14 0.18 0.26 0.28 0.18 0.12 0.15 0.21 0.30 0.30 0.27 0.32 0.29 0.25 0.21 0.16 0.14 0.15 0.38 0.44 0.21 0.17 0.20
0.08 0.08 0.07 0.06 0.06 0.07 0.06 0.04 0.03 0.03 0.04 0.04 0.05 0.08 0.09 0.10 0.11 0.14 0.15 0.17 0.22 0.25 0.25 0.27 0.21 0.16 0.18 0.23 0.33 0.40 0.39 0.36 0.34 0.22 0.24 0.21 0.20 0.26 0.63 1.18 0.65 0.33 0.28
0.09 0.09 0.08 0.07 0.05 0.04 0.02 0.01 0.01 0.01 0.02 0.03 0.05 0.08 0.09 0.10 0.14 0.17 0.17 0.20 0.27 0.32 0.33 0.35 0.30 0.25 0.22 0.29 0.37 0.42 0.42 0.40 0.34 0.26 0.31 0.28 0.43 0.75 1.26 1.92 1.48 0.83 0.60
0.11 0.07 0.05 0.03 0.03 0.02 0.01 0.01 0.01 0.01 0.02 0.04 0.07 0.08 0.06 0.06 0.07 0.08 0.12 0.19 0.28 0.36 0.42 0.46 0.42 0.36 0.28 0.32 0.42 0.47 0.48 0.47 0.38 0.25 0.29 0.33 0.62 1.33 2.02 2.43 2.05 1.28 0.96
0.06 0.05 0.04 0.03 0.03 0.03 0.00 0.00 0.00 0.00 0.03 0.06 0.10 0.09 0.06 0.05 0.09 0.13 0.14 0.16 0.21 0.29 0.42 0.54 0.53 0.41 0.37 0.40 0.54 0.61 0.55 0.53 0.49 0.34 0.36 0.40 0.73 1.57 1.98 2.26 2.09 1.43 1.13
0.05 0.04 0.03 0.03 0.04 0.03 0.00 0.00 0.00 0.01 0.04 0.07 0.08 0.09 0.11 0.13 0.13 0.13 0.13 0.18 0.23 0.29 0.39 0.46 0.50 0.45 0.45 0.47 0.54 0.58 0.54 0.53 0.42 0.32 0.39 0.52 0.82 1.47 1.64 1.75 1.89 1.49 1.21
0.04 0.03 0.02 0.03 0.05 0.05 0.01 0.00 0.00 0.02 0.03 0.04 0.05 0.08 0.10 0.13 0.12 0.12 0.17 0.26 0.29 0.37 0.51 0.68 0.68 0.63 0.63 0.62 0.53 0.48 0.53 0.57 0.49 0.33 0.35 0.52 0.77 1.14 1.29 1.39 1.47 1.43 1.32
0.03 0.03 0.03 0.04 0.06 0.07 0.02 0.00 0.01 0.02 0.04 0.04 0.05 0.07 0.09 0.10 0.11 0.14 0.20 0.32 0.43 0.51 0.70 0.90 0.83 0.76 0.68 0.66 0.61 0.52 0.59 0.68 0.62 0.46 0.36 0.45 0.61 0.81 1.05 1.19 1.13 1.09 1.16